{"data":{"norad_id":56203,"epoch":"2026-09-21T23:52:39.766080Z","epoch_age_seconds":58663,"freshness":"FRESH","line1":"1 56203U 23054AB  26264.99490470  .00056543  00000+0  54166-3 0  9999","line2":"2 56203  97.2507 174.4437 0001182 233.4273 126.6879 15.66500803193752","mean_motion":15.66500803,"eccentricity":0.0001182,"inclination_deg":97.2507,"raan_deg":174.4437,"arg_perigee_deg":233.4273,"mean_anomaly_deg":126.6879,"bstar":0.00054166,"rev_number":19375,"period_min":91.924625716263,"perigee_km":368.12841547902,"apogee_km":369.7234211529,"semimajor_km":6747.062918316,"source":"CELESTRAK","updated_at":"2026-09-22T09:00:25.736049Z"}}